Regional Weather Roundup
Issued by NWS Midland/Odessa, TX

Skip options and go directly to product.
Home | Oldest Version | Next Version | Current Version | All | Text Only | Save Text | Print | Product List | Glossary On

Skip product version selection by date and time.   
280
ASUS44 KMAF 241402
RWRMAF
MIDLAND AREA WEATHER ROUNDUP
NATIONAL WEATHER SERVICE MIDLAND TX
900 AM CDT FRI OCT 24 2014

...IN SOUTHWEST TEXAS AND SOUTHEAST NEW MEXICO...

CITY           SKY/WX    TMP DP  RH WIND       PRES   REMARKS
ALPINE         SUNNY     60  55  84 SW6       30.32R
ANDREWS        FAIR      61  58  90 SW5       30.19R
ARTESIA        NOT AVBL
BIG SPRING     CLOUDY    59  58  94 S6        30.20R VSB<1/4
CARLSBAD       CLEAR     56  53  90 CALM      30.18R
DRYDEN           N/A     61  60  97 W3        30.16R
FORT STOCKTON  SUNNY     64  57  78 SW10      30.18R
GUAD PASS      NOT AVBL
HOBBS          FOG       55  55 100 S5        30.20R VSB 1/4
MARFA          SUNNY     52  50  93 N3        30.31R
MIDLAND AIRPK  MOSUNNY   60  60 100 CALM      30.18R FOG
MIDLAND INTL   FOG       58  58 100 S5        30.17R VSB 1
ODESSA         SUNNY     62  60  93 S5        30.18R FOG
PECOS          FOG       55  55  97 NW3       30.18R VSB<1/4
PRESIDIO       FAIR      63  57  80 CALM      30.21R
SEMINOLE       SUNNY     56  56  99 W6        30.19R FOG
SNYDER         DRZL/FOG  58  57  99 SW8       30.17R VSB<1/4
WINK           CLOUDY    59  32  36 CALM      30.17R
$$
...OTHER STATIONS IN TEXAS...

CITY           SKY/WX    TMP DP  RH WIND       PRES   REMARKS
ABILENE        SUNNY     63  60  90 SW7       30.16R FOG
AMARILLO       SUNNY     55  51  86 SW5       30.15R
AUSTIN         MOSUNNY   62  57  83 CALM      30.16R
BROWNSVILLE    SUNNY     74  68  81 N5        30.12R
CORPUS CHRISTI MOSUNNY   68  65  90 N5        30.13R
DALLAS FTW     MOSUNNY   64  56  75 SE7       30.16R
DEL RIO        SUNNY     65  59  81 SE3       30.15R
EL PASO        CLEAR     55  51  86 NE3       30.23R
HOUSTON INT    SUNNY     59  53  80 NE5       30.17R
LUBBOCK        SUNNY     56  54  93 SW3       30.16R
SAN ANGELO     SUNNY     58  57  97 S5        30.17R FOG
SAN ANTONIO    SUNNY     66  58  75 CALM      30.17R
WACO           MOSUNNY   65  56  72 SE7       30.17R
WICHITA FALLS  NOT AVBL
$$
...OTHER LOCATIONS IN NEW MEXICO...

CITY           SKY/WX    TMP DP  RH WIND       PRES   REMARKS
ALAMAGORDO     NOT AVBL
ALBUQUERQUE    PTCLDY    51  36  56 W5        30.31S
CANNON AFB     CLEAR     53  50  89 W9        30.20R
CLOVIS         CLEAR     52  48  87 W6        30.21R
HOLLOMAN AFB   CLEAR     49  45  84 W3        30.23R
ROSWELL        CLEAR     53  47  79 W5        30.19R
RUIDOSO        CLEAR     48  36  61 SW10      30.36
SANTA FE       PTCLDY    46  30  53 N13       30.34R
TRUTH OR CONSE CLEAR     52  44  74 N7        30.28R
TUCUMCARI      CLEAR     51  40  65 W10       30.16R
$$

USA.gov is the U.S. government's official web portal to all federal, state and local government web resources and services.